Location: L�gaud
(45.7115°N, 1.7775°E)
Time: 13:04:55
(UTC+00:00)

Cosmos 1869 Rocket - Pass Details

Date: 03 March 2021
Orbit: 605 x 633 km, 82.5° (Epoch: 11 April)

Event Time Altitude Azimuth Distance (km) Brightness Sun altitude
Rises 19:50:00 0° 192° (SSW) 2,858 6.9 -22.9°
Reaches altitude 10° 19:52:12 10° 194° (SSW) 1,962 6.1 -23.2°
Maximum altitude 19:56:32 74° 279° (W) 644 3.7 -24.0°
Drops below altitude 10° 20:00:57 10° 5° (N) 1,995 6.3 -24.7°
Sets 20:03:13 0° 8° (N) 2,910 7.1 -25.1°
